Flag for Ireland Weather past 2 weeks in Dublin, Ireland

Now
37 °F

Passing clouds.


Feels Like: 31 °F
Forecast: 35 / 51 °F
Wind: 8 mph from Southwest

Location: Dublin Airport

Current Time: Apr 27, 2015 at 8:23:01 AM

Latest Report: Apr 27, 2015 at 8:00 AM


Visibility: N/A

Pressure: 29.86 "Hg

Humidity: 87%

Dew point: 34 °F

Location of DublinLocation

Historic Weather in Dublin — Graph

°F

Dublin temperature yesterday

Maximum temperature yesterday: 48 °F (at 1:00 PM)
Minimum temperature yesterday: 28 °F (at 4:00 AM)
Average temperature yesterday: 39 °F

Past Weeks' High & Low Weather Summary

 TemperatureHumidityPressure
High63 °F (Apr 14, 6:00 PM)100% (Apr 12, 7:30 AM)30.63 "Hg (Apr 12, 7:30 AM)
Low28 °F (Apr 26, 4:00 AM)39% (Apr 14, 6:30 PM)29.53 "Hg (Apr 25, 3:30 AM)
Average46 °F79%30.15 "Hg
* Reported Apr 12 7:00 AM — Apr 27 7:00 AM, Dublin, Weather by CustomWeather, © 2015

Note: Actual official high and low records may vary slightly from our data, if they occured in-between our weather recording intervals... More about our weather records

Advertising

Dublin weather history for previous 24 hours

 ConditionsComfort  
Time TempWeatherWind HumidityBarometerVisibility
7:00 AM
Mon, Apr 27
34 °FPassing clouds.5 mph93%29.89 "HgN/A
6:30 AM32 °FPassing clouds.7 mph100%29.89 "HgN/A
6:00 AM32 °FPassing clouds.6 mph93%29.89 "HgN/A
5:30 AM30 °FPassing clouds.6 mph100%29.89 "HgN/A
5:00 AM32 °FPassing clouds.7 mph93%29.89 "HgN/A
4:30 AM30 °FPassing clouds.7 mph100%29.89 "HgN/A
4:00 AM30 °FPassing clouds.7 mph93%29.89 "HgN/A
3:30 AM32 °FPassing clouds.8 mph93%29.89 "HgN/A
3:00 AM30 °FPassing clouds.8 mph93%29.89 "HgN/A
2:30 AM30 °FPassing clouds.8 mph100%29.92 "HgN/A
2:00 AM30 °FPassing clouds.7 mph93%29.92 "HgN/A
1:30 AM32 °FPassing clouds.8 mph93%29.92 "HgN/A
1:00 AM32 °FPassing clouds.6 mph100%29.92 "HgN/A
12:30 AM30 °FPassing clouds.7 mph93%29.92 "HgN/A
12:00 AM30 °FPassing clouds.6 mph100%29.92 "HgN/A
11:30 PM
Sun, Apr 26
30 °FPassing clouds.7 mph100%29.92 "HgN/A
11:00 PM32 °FPassing clouds.5 mph93%29.92 "HgN/A
10:30 PM34 °FPassing clouds.5 mph93%29.92 "HgN/A
10:00 PM36 °FPassing clouds.6 mph87%29.92 "HgN/A
9:30 PM37 °FScattered clouds.8 mph87%29.92 "HgN/A
9:00 PM37 °FScattered clouds.6 mph87%29.89 "HgN/A
8:30 PM39 °FScattered clouds.5 mph81%29.89 "HgN/A
8:00 PM43 °FScattered clouds.6 mph81%29.89 "HgN/A
7:30 PM43 °FScattered clouds.5 mph76%29.89 "HgN/A
7:00 PM43 °FScattered clouds.6 mph76%29.89 "HgN/A
6:30 PM41 °FPartly sunny.6 mph87%29.89 "HgN/A
6:00 PM41 °FSprinkles. Scattered clouds.13 mph87%29.89 "HgN/A
5:30 PM43 °FScattered showers. Scattered clouds.15 mph81%29.86 "HgN/A
5:00 PM46 °FScattered showers. Partly sunny.14 mph66%29.86 "HgN/A
4:30 PM48 °FScattered showers. Partly sunny.17 mph62%29.86 "HgN/A
4:00 PM48 °FScattered showers. Partly sunny.13 mph58%29.86 "HgN/A
3:30 PM48 °FPartly sunny.16 mph58%29.86 "HgN/A
3:00 PM46 °FPartly sunny.14 mph66%29.89 "HgN/A
2:30 PM46 °FBroken clouds.10 mph62%29.89 "HgN/A
2:00 PM48 °FBroken clouds.8 mph54%29.89 "HgN/A
1:30 PM48 °FBroken clouds.10 mph54%29.89 "HgN/A
1:00 PM48 °FBroken clouds.8 mph54%29.89 "HgN/A
12:30 PM46 °FBroken clouds.10 mph50%29.89 "HgN/A
12:00 PM46 °FBroken clouds.5 mph53%29.89 "HgN/A
11:30 AM46 °FBroken clouds.8 mph62%29.89 "HgN/A
11:00 AM46 °FPartly sunny.7 mph53%29.89 "HgN/A
10:30 AM46 °FPartly sunny.8 mph62%29.89 "HgN/A
10:00 AM45 °FPartly sunny.8 mph66%29.89 "HgN/A
9:30 AM43 °FPartly sunny.7 mph66%29.89 "HgN/A
9:00 AM41 °FPartly sunny.8 mph76%29.89 "HgN/A
8:30 AM39 °FScattered clouds.8 mph75%29.89 "HgN/A
8:00 AM36 °FScattered clouds.8 mph87%29.89 "HgN/A
Weather by CustomWeather, © 2015

See weather overviewHow to use our weather pages